EZY74HQ EGKK-LGKL

Flight info

Callsign EZY74HQ
Flight time N/A
Altitude 35000
Route ODVIK Y311 DVR UL9 KONAN DCT KOK UL607 REMBA DCT ARCKY DCT LIRSU DCT KRH DCT BATUB DCT TIRUL M738 NATAG DCT LORLO DCT BORMI DCT AKADO DCT LABIN DCT ELGUS DCT AIOSA DCT OKIMO DCT NOSTO UN7 ROTSA UM127 ARA UL612 TRL Y115 IPTAG
Aircraft A320/M-SDE2E3FGHIJ1RWXYZ/LB1

Departure

Time 2026-05-05 09:56
Airport London Gatwick Airport (EGKK)

Arrival

Time N/A
Airport Kalamata Airport (LGKL)
Time Latitude Longitude Altitude Speed Heading
2026-05-05 09:21 51.15335 -0.17811 211 ft 0 kts 348°
2026-05-05 09:46 51.15324 -0.17807 212 ft 2 kts 348°
2026-05-05 09:46 51.15307 -0.17801 207 ft 2 kts 348°
2026-05-05 09:46 51.15290 -0.17796 212 ft 2 kts 348°
2026-05-05 09:46 51.15273 -0.17789 215 ft 3 kts 325°
2026-05-05 09:47 51.15261 -0.17769 214 ft 3 kts 289°
2026-05-05 09:47 51.15258 -0.17742 212 ft 1 kts 256°
2026-05-05 09:50 51.15258 -0.17743 212 ft 1 kts 255°
2026-05-05 09:50 51.15248 -0.17827 206 ft 15 kts 258°
2026-05-05 09:50 51.15218 -0.18037 203 ft 21 kts 256°
2026-05-05 09:50 51.15190 -0.18252 203 ft 19 kts 259°
2026-05-05 09:51 51.15168 -0.18452 207 ft 17 kts 257°
2026-05-05 09:51 51.15144 -0.18630 212 ft 16 kts 258°
2026-05-05 09:51 51.15121 -0.18789 205 ft 14 kts 257°
2026-05-05 09:51 51.15108 -0.18882 205 ft 12 kts 257°
2026-05-05 09:52 51.15083 -0.19068 208 ft 24 kts 258°
2026-05-05 09:52 51.15047 -0.19334 203 ft 25 kts 257°
2026-05-05 09:52 51.15009 -0.19605 209 ft 25 kts 257°
2026-05-05 09:52 51.14971 -0.19882 213 ft 26 kts 258°
2026-05-05 09:53 51.14932 -0.20168 205 ft 27 kts 257°
2026-05-05 09:53 51.14892 -0.20461 206 ft 27 kts 258°
2026-05-05 09:53 51.14850 -0.20759 206 ft 26 kts 257°
2026-05-05 09:53 51.14816 -0.21003 203 ft 22 kts 257°
2026-05-05 09:54 51.14792 -0.21148 213 ft 12 kts 249°
2026-05-05 09:54 51.14765 -0.21300 211 ft 18 kts 256°
2026-05-05 09:54 51.14690 -0.21392 207 ft 15 kts 156°
2026-05-05 09:54 51.14608 -0.21323 206 ft 13 kts 166°
2026-05-05 09:55 51.14522 -0.21212 209 ft 20 kts 110°
2026-05-05 09:55 51.14529 -0.21098 208 ft 7 kts 78°
2026-05-05 09:55 51.14563 -0.20852 203 ft 54 kts 77°
2026-05-05 09:55 51.14691 -0.19925 206 ft 115 kts 77°
2026-05-05 09:56 51.14898 -0.18420 210 ft 161 kts 78°
2026-05-05 09:56 51.15135 -0.16644 746 ft 163 kts 74°
2026-05-05 09:56 51.15375 -0.14876 1496 ft 164 kts 75°
2026-05-05 09:56 51.15635 -0.13009 1952 ft 182 kts 74°
2026-05-05 09:57 51.15928 -0.10923 2186 ft 204 kts 75°
2026-05-05 09:57 51.16257 -0.08578 2456 ft 229 kts 74°
2026-05-05 09:57 51.16616 -0.05987 2943 ft 246 kts 76°
2026-05-05 09:57 51.16901 -0.03280 3741 ft 250 kts 87°
2026-05-05 09:58 51.16865 -0.00485 4565 ft 254 kts 90°
2026-05-05 09:58 51.16811 0.02352 5343 ft 258 kts 91°
2026-05-05 09:58 51.16753 0.05249 6051 ft 265 kts 91°
2026-05-05 09:58 51.16692 0.08226 6751 ft 272 kts 90°
2026-05-05 09:59 51.16633 0.11260 7465 ft 276 kts 90°
2026-05-05 09:59 51.16573 0.14334 8293 ft 280 kts 91°
2026-05-05 09:59 51.16529 0.17452 9032 ft 283 kts 90°
2026-05-05 09:59 51.16524 0.20606 9774 ft 287 kts 89°
2026-05-05 10:00 51.16535 0.23802 10465 ft 290 kts 89°
2026-05-05 10:00 51.16549 0.27029 11153 ft 293 kts 89°
2026-05-05 10:00 51.16564 0.30286 11845 ft 295 kts 89°
2026-05-05 10:00 51.16579 0.33567 12519 ft 298 kts 89°
2026-05-05 10:01 51.16589 0.36878 13202 ft 300 kts 89°
2026-05-05 10:01 51.16591 0.40214 13872 ft 302 kts 89°
2026-05-05 10:01 51.16590 0.43577 14452 ft 305 kts 89°
2026-05-05 10:01 51.16585 0.46982 14937 ft 313 kts 90°
2026-05-05 10:02 51.16536 0.50551 15058 ft 332 kts 91°
2026-05-05 10:02 51.16452 0.54318 15193 ft 349 kts 92°
2026-05-05 10:02 51.16347 0.58238 15535 ft 358 kts 92°
2026-05-05 10:02 51.16236 0.62217 16034 ft 362 kts 92°
2026-05-05 10:03 51.16129 0.66238 16555 ft 365 kts 92°
2026-05-05 10:03 51.16025 0.70295 17093 ft 368 kts 92°
2026-05-05 10:03 51.15918 0.74387 17604 ft 371 kts 93°
2026-05-05 10:03 51.15812 0.78510 18011 ft 374 kts 93°
2026-05-05 10:04 51.15704 0.82671 18498 ft 377 kts 93°
2026-05-05 10:04 51.15594 0.86857 18955 ft 380 kts 93°
2026-05-05 10:04 51.15482 0.91077 19406 ft 382 kts 94°
2026-05-05 10:04 51.15367 0.95324 19852 ft 385 kts 94°
2026-05-05 10:05 51.15250 0.99593 20304 ft 387 kts 94°
2026-05-05 10:05 51.15130 1.03893 20733 ft 390 kts 94°
2026-05-05 10:05 51.15005 1.08218 21167 ft 392 kts 94°
2026-05-05 10:05 51.14881 1.12514 21588 ft 395 kts 94°
2026-05-05 10:06 51.14750 1.16949 22016 ft 397 kts 95°
2026-05-05 10:06 51.14618 1.21295 22429 ft 399 kts 95°
2026-05-05 10:06 51.14485 1.25725 22839 ft 402 kts 95°
2026-05-05 10:06 51.14352 1.30179 23245 ft 404 kts 95°
2026-05-05 10:07 51.14215 1.34664 23621 ft 407 kts 95°
2026-05-05 10:07 51.14075 1.39176 23950 ft 409 kts 95°
2026-05-05 10:07 51.13935 1.43713 24269 ft 412 kts 95°
2026-05-05 10:07 51.13793 1.48276 24586 ft 414 kts 95°
2026-05-05 10:08 51.13648 1.52861 24898 ft 416 kts 95°
2026-05-05 10:08 51.13499 1.57472 25215 ft 418 kts 95°
2026-05-05 10:08 51.13346 1.62107 25514 ft 420 kts 95°
2026-05-05 10:08 51.13188 1.66768 25810 ft 423 kts 95°
2026-05-05 10:09 51.13029 1.71448 26103 ft 425 kts 95°
2026-05-05 10:09 51.12869 1.76153 26392 ft 427 kts 95°
2026-05-05 10:09 51.12705 1.80888 26684 ft 429 kts 95°
2026-05-05 10:09 51.12539 1.85644 26972 ft 431 kts 95°
2026-05-05 10:10 51.12369 1.90420 27255 ft 434 kts 95°
2026-05-05 10:10 51.12196 1.95227 27537 ft 436 kts 95°
2026-05-05 10:10 51.12024 2.00051 27814 ft 438 kts 95°
2026-05-05 10:10 51.11850 2.04899 28096 ft 440 kts 95°
2026-05-05 10:11 51.11672 2.09765 28370 ft 442 kts 95°
2026-05-05 10:11 51.11490 2.14665 28628 ft 444 kts 95°
2026-05-05 10:11 51.11303 2.19585 28889 ft 446 kts 96°
2026-05-05 10:11 51.11113 2.24523 29139 ft 448 kts 96°
2026-05-05 10:12 51.10920 2.29482 29380 ft 450 kts 96°
2026-05-05 10:12 51.10723 2.34464 29614 ft 452 kts 96°
2026-05-05 10:12 51.10524 2.39465 29847 ft 454 kts 96°
2026-05-05 10:12 51.10324 2.44486 30057 ft 456 kts 96°
2026-05-05 10:13 51.10122 2.49532 30264 ft 457 kts 96°
2026-05-05 10:13 51.09916 2.54573 30548 ft 457 kts 96°
2026-05-05 10:13 51.09706 2.59616 30821 ft 457 kts 96°
2026-05-05 10:13 51.09408 2.64637 31079 ft 455 kts 102°
2026-05-05 10:14 51.08702 2.69513 31346 ft 452 kts 109°
2026-05-05 10:14 51.07830 2.74313 31611 ft 452 kts 109°
2026-05-05 10:14 51.06957 2.79103 31889 ft 451 kts 109°
2026-05-05 10:14 51.06086 2.83890 32172 ft 451 kts 109°
2026-05-05 10:15 51.05216 2.88678 32449 ft 450 kts 109°
2026-05-05 10:15 51.04351 2.93454 32728 ft 450 kts 109°
2026-05-05 10:15 51.03484 2.98221 33007 ft 449 kts 109°
2026-05-05 10:15 51.02611 3.02985 33293 ft 448 kts 109°
2026-05-05 10:16 51.01735 3.07732 33571 ft 448 kts 110°
2026-05-05 10:16 51.00856 3.12476 33847 ft 447 kts 110°
2026-05-05 10:16 50.99977 3.17212 34081 ft 447 kts 110°
2026-05-05 10:16 50.99098 3.21941 34301 ft 447 kts 110°
2026-05-05 10:17 50.98218 3.26665 34498 ft 447 kts 110°
2026-05-05 10:17 50.97339 3.31387 34696 ft 447 kts 110°
2026-05-05 10:17 50.96456 3.36116 34868 ft 447 kts 110°
2026-05-05 10:17 50.95587 3.40769 34929 ft 445 kts 110°
2026-05-05 10:18 50.93823 3.50162 34911 ft 444 kts 110°
2026-05-05 10:18 50.92056 3.59527 34911 ft 443 kts 110°
2026-05-05 10:19 50.90282 3.68871 34916 ft 443 kts 110°
2026-05-05 10:19 50.88480 3.78197 34923 ft 442 kts 111°
2026-05-05 10:20 50.86667 3.87501 34908 ft 442 kts 111°
2026-05-05 10:20 50.84857 3.96798 34914 ft 442 kts 111°
2026-05-05 10:21 50.83050 4.06070 34915 ft 441 kts 111°
2026-05-05 10:21 50.81233 4.15353 34914 ft 441 kts 111°
2026-05-05 10:22 50.79413 4.24576 34915 ft 440 kts 111°
2026-05-05 10:22 50.77574 4.33830 34914 ft 440 kts 112°
2026-05-05 10:23 50.75730 4.43042 34919 ft 440 kts 112°
2026-05-05 10:23 50.73884 4.52244 34920 ft 440 kts 112°
2026-05-05 10:24 50.72031 4.61433 34917 ft 439 kts 112°
2026-05-05 10:24 50.70243 4.70590 34917 ft 440 kts 112°
2026-05-05 10:25 50.68462 4.79873 34913 ft 439 kts 112°
2026-05-05 10:25 50.66677 4.89071 34905 ft 438 kts 112°
2026-05-05 10:26 50.64354 4.97838 34896 ft 432 kts 120°
2026-05-05 10:26 50.61837 5.06449 34890 ft 432 kts 120°
2026-05-05 10:27 50.59321 5.15041 34890 ft 432 kts 120°
2026-05-05 10:27 50.56798 5.23622 34888 ft 432 kts 120°
2026-05-05 10:28 50.54271 5.32186 34884 ft 432 kts 120°
2026-05-05 10:28 50.51735 5.40738 34884 ft 432 kts 121°
2026-05-05 10:29 50.49197 5.49286 34876 ft 432 kts 121°
2026-05-05 10:29 50.46655 5.57829 34871 ft 432 kts 121°
2026-05-05 10:30 50.44101 5.66364 34867 ft 432 kts 121°
2026-05-05 10:30 50.41540 5.74897 34859 ft 433 kts 121°
2026-05-05 10:31 50.38967 5.83431 34854 ft 433 kts 121°
2026-05-05 10:31 50.36403 5.91905 34851 ft 433 kts 121°
2026-05-05 10:32 50.33815 6.00431 34844 ft 434 kts 121°
2026-05-05 10:32 50.31215 6.08948 34841 ft 434 kts 121°
2026-05-05 10:33 50.28558 6.17419 34839 ft 433 kts 123°
2026-05-05 10:33 50.25679 6.25666 34829 ft 432 kts 125°
2026-05-05 10:34 50.22731 6.33842 34828 ft 432 kts 125°
2026-05-05 10:34 50.19803 6.42042 34829 ft 433 kts 124°
2026-05-05 10:35 50.16366 6.49603 34839 ft 425 kts 135°
2026-05-05 10:35 50.12562 6.56664 34841 ft 425 kts 135°
2026-05-05 10:36 50.08751 6.63711 34845 ft 425 kts 136°
2026-05-05 10:36 50.04931 6.70741 34847 ft 425 kts 136°
2026-05-05 10:37 50.01763 6.76579 34848 ft 425 kts 136°
2026-05-05 10:37 49.97946 6.83594 34856 ft 425 kts 136°
2026-05-05 10:38 49.94123 6.90585 34863 ft 424 kts 136°
2026-05-05 10:38 49.93478 6.91763 34861 ft 424 kts 136°
2026-05-05 10:39 49.82374 7.11985 34894 ft 422 kts 136°
2026-05-05 10:40 49.78564 7.18875 34889 ft 421 kts 136°
2026-05-05 10:40 49.74756 7.25749 34883 ft 420 kts 136°
2026-05-05 10:41 49.70953 7.32607 34878 ft 420 kts 136°
2026-05-05 10:41 49.67147 7.39439 34862 ft 419 kts 136°
2026-05-05 10:42 49.61466 7.49607 34862 ft 418 kts 137°
2026-05-05 10:43 49.57666 7.56392 34866 ft 418 kts 137°
2026-05-05 10:43 49.53868 7.63162 34857 ft 417 kts 137°
2026-05-05 10:44 49.50065 7.69907 34858 ft 417 kts 137°
2026-05-05 10:44 49.46263 7.76637 34852 ft 417 kts 137°
2026-05-05 10:45 49.42460 7.83357 34853 ft 416 kts 137°
2026-05-05 10:45 49.38654 7.90063 34851 ft 416 kts 137°
2026-05-05 10:46 49.34849 7.96756 34849 ft 416 kts 137°
2026-05-05 10:46 49.31037 8.03440 34842 ft 416 kts 137°
2026-05-05 10:47 49.27221 8.10117 34841 ft 416 kts 137°
2026-05-05 10:47 49.23399 8.16780 34844 ft 416 kts 137°
2026-05-05 10:48 49.19576 8.23427 34844 ft 416 kts 137°
2026-05-05 10:48 49.15749 8.30061 34846 ft 416 kts 137°
2026-05-05 10:49 49.11919 8.36686 34847 ft 416 kts 137°
2026-05-05 10:49 49.08089 8.43303 34841 ft 416 kts 137°
2026-05-05 10:50 49.04254 8.49911 34844 ft 416 kts 137°
2026-05-05 10:50 49.00394 8.56479 34841 ft 414 kts 141°
2026-05-05 10:51 48.95862 8.61630 34840 ft 404 kts 153°
2026-05-05 10:51 48.91060 8.66085 34836 ft 404 kts 153°
2026-05-05 10:52 48.86255 8.70548 34840 ft 405 kts 153°
2026-05-05 10:52 48.81447 8.75013 34840 ft 405 kts 153°
2026-05-05 10:53 48.76634 8.79474 34849 ft 405 kts 153°
2026-05-05 10:53 48.71816 8.83912 34850 ft 405 kts 153°
2026-05-05 10:54 48.67000 8.88345 34851 ft 405 kts 153°
2026-05-05 10:54 48.62187 8.92771 34847 ft 405 kts 153°
2026-05-05 10:55 48.57372 8.97184 34847 ft 405 kts 153°
2026-05-05 10:55 48.52556 9.01585 34846 ft 404 kts 153°
2026-05-05 10:56 48.47776 9.05943 34842 ft 404 kts 153°
2026-05-05 10:56 48.42967 9.10329 34838 ft 404 kts 153°
2026-05-05 10:57 48.38154 9.14700 34839 ft 404 kts 153°
2026-05-05 10:57 48.33341 9.19060 34834 ft 404 kts 153°
2026-05-05 10:58 48.28527 9.23413 34847 ft 404 kts 153°
2026-05-05 10:58 48.23708 9.27753 34840 ft 404 kts 153°
2026-05-05 10:59 48.18895 9.32093 34840 ft 404 kts 153°
2026-05-05 10:59 48.14079 9.36428 34846 ft 404 kts 153°
2026-05-05 11:00 48.09253 9.40739 34849 ft 404 kts 153°
2026-05-05 11:00 48.04431 9.45047 34848 ft 404 kts 153°
2026-05-05 11:01 47.99613 9.49353 34850 ft 404 kts 153°
2026-05-05 11:01 47.94789 9.53653 34849 ft 404 kts 153°
2026-05-05 11:02 47.90777 9.57218 34856 ft 404 kts 153°
2026-05-05 11:02 47.85942 9.61499 34867 ft 404 kts 153°
2026-05-05 11:03 47.81103 9.65772 34866 ft 405 kts 153°
2026-05-05 11:03 47.76260 9.70049 34866 ft 405 kts 153°
2026-05-05 11:04 47.71411 9.74329 34865 ft 406 kts 153°
2026-05-05 11:04 47.66552 9.78605 34862 ft 406 kts 153°
2026-05-05 11:05 47.61684 9.82865 34860 ft 407 kts 153°
2026-05-05 11:05 47.56017 9.87816 34861 ft 407 kts 153°
2026-05-05 11:06 47.51960 9.91361 34858 ft 408 kts 153°
2026-05-05 11:06 47.47072 9.95630 34854 ft 408 kts 153°
2026-05-05 11:07 47.42176 9.99892 34848 ft 409 kts 153°
2026-05-05 11:07 47.37270 10.04149 34846 ft 409 kts 153°
2026-05-05 11:08 47.32353 10.08405 34849 ft 410 kts 154°
2026-05-05 11:08 47.27425 10.12654 34853 ft 410 kts 154°
2026-05-05 11:09 47.22494 10.16899 34855 ft 411 kts 154°
2026-05-05 11:09 47.17561 10.21147 34861 ft 411 kts 154°
2026-05-05 11:10 47.12623 10.25393 34867 ft 412 kts 154°
2026-05-05 11:10 47.07704 10.29610 34879 ft 412 kts 154°
2026-05-05 11:11 47.02745 10.33839 34880 ft 413 kts 154°
2026-05-05 11:11 46.97774 10.38068 34891 ft 414 kts 154°
2026-05-05 11:12 46.92793 10.42303 34899 ft 414 kts 154°
2026-05-05 11:12 46.87806 10.46539 34910 ft 415 kts 154°
2026-05-05 11:13 46.82815 10.50769 34919 ft 415 kts 154°
2026-05-05 11:13 46.77813 10.55003 34931 ft 416 kts 154°
2026-05-05 11:14 46.72799 10.59238 34946 ft 417 kts 154°
2026-05-05 11:14 46.67772 10.63463 34953 ft 418 kts 154°
2026-05-05 11:15 46.62729 10.67690 34968 ft 419 kts 154°
2026-05-05 11:15 46.57679 10.71929 34978 ft 420 kts 154°
2026-05-05 11:16 46.52646 10.76139 34990 ft 421 kts 154°
2026-05-05 11:16 46.47566 10.80366 35013 ft 422 kts 154°
2026-05-05 11:17 46.42471 10.84618 35022 ft 423 kts 154°
2026-05-05 11:17 46.37365 10.88867 35021 ft 424 kts 155°
2026-05-05 11:18 46.32241 10.93104 35020 ft 424 kts 155°
2026-05-05 11:18 46.27114 10.97335 35029 ft 425 kts 155°
2026-05-05 11:19 46.21974 11.01580 35030 ft 426 kts 155°
2026-05-05 11:19 46.16824 11.05819 35024 ft 426 kts 155°
2026-05-05 11:20 46.11666 11.10058 35027 ft 427 kts 155°
2026-05-05 11:20 46.06497 11.14296 35023 ft 429 kts 153°
2026-05-05 11:21 46.01937 11.19951 35006 ft 440 kts 134°
2026-05-05 11:21 45.98267 11.27031 35001 ft 442 kts 131°
2026-05-05 11:22 45.94594 11.34140 35002 ft 443 kts 131°
2026-05-05 11:22 45.90903 11.41250 35007 ft 444 kts 131°
2026-05-05 11:23 45.87200 11.48362 35011 ft 445 kts 131°
2026-05-05 11:23 45.83514 11.55415 35012 ft 445 kts 131°
2026-05-05 11:24 45.79801 11.62522 35015 ft 446 kts 131°
2026-05-05 11:24 45.76088 11.69633 35020 ft 446 kts 131°
2026-05-05 11:25 45.72366 11.76737 35025 ft 446 kts 131°
2026-05-05 11:25 45.68637 11.83823 35029 ft 446 kts 131°
2026-05-05 11:26 45.64894 11.90899 35034 ft 446 kts 131°
2026-05-05 11:26 45.61149 11.97963 35034 ft 446 kts 131°
2026-05-05 11:27 45.57400 12.05029 35035 ft 446 kts 131°
2026-05-05 11:27 45.53653 12.12091 35008 ft 447 kts 131°
2026-05-05 11:28 45.49893 12.19147 35008 ft 447 kts 131°
2026-05-05 11:28 45.46128 12.26191 35008 ft 447 kts 131°
2026-05-05 11:29 45.42350 12.33239 35011 ft 448 kts 131°
2026-05-05 11:29 45.38564 12.40285 35007 ft 448 kts 131°
2026-05-05 11:30 45.34769 12.47325 35005 ft 448 kts 131°
2026-05-05 11:30 45.30922 12.54304 35005 ft 449 kts 133°
2026-05-05 11:31 45.26954 12.61068 35003 ft 449 kts 134°
2026-05-05 11:31 45.22928 12.67828 34997 ft 448 kts 134°
2026-05-05 11:32 45.18932 12.74610 34998 ft 448 kts 134°
2026-05-05 11:32 45.14954 12.81425 34998 ft 449 kts 133°
2026-05-05 11:33 45.10963 12.88225 34996 ft 449 kts 134°
2026-05-05 11:33 45.06955 12.94999 34999 ft 449 kts 134°
2026-05-05 11:34 45.02940 13.01775 35000 ft 450 kts 134°
2026-05-05 11:34 44.98916 13.08547 34997 ft 449 kts 136°
2026-05-05 11:35 44.94470 13.14700 35005 ft 448 kts 140°
2026-05-05 11:35 44.89959 13.20764 35003 ft 448 kts 140°
2026-05-05 11:36 44.85434 13.26837 35014 ft 450 kts 140°
2026-05-05 11:36 44.80903 13.32904 35012 ft 449 kts 140°
2026-05-05 11:37 44.76370 13.38969 35015 ft 450 kts 140°
2026-05-05 11:37 44.71833 13.45040 35020 ft 450 kts 140°
2026-05-05 11:38 44.67286 13.51103 35036 ft 451 kts 140°
2026-05-05 11:38 44.62723 13.57151 35034 ft 451 kts 140°
2026-05-05 11:39 44.58154 13.63201 35032 ft 452 kts 140°
2026-05-05 11:39 44.53579 13.69248 35033 ft 452 kts 140°
2026-05-05 11:40 44.49000 13.75294 35028 ft 453 kts 140°
2026-05-05 11:40 44.44413 13.81338 35030 ft 453 kts 140°
2026-05-05 11:41 44.39820 13.87378 35033 ft 453 kts 140°
2026-05-05 11:41 44.35218 13.93403 35039 ft 453 kts 140°
2026-05-05 11:42 44.30639 13.99370 35036 ft 454 kts 140°
2026-05-05 11:42 44.26026 14.05382 35028 ft 454 kts 140°
2026-05-05 11:43 44.21415 14.11399 35030 ft 454 kts 140°
2026-05-05 11:43 44.16796 14.17414 35027 ft 455 kts 140°
2026-05-05 11:44 44.12167 14.23415 35028 ft 455 kts 140°
2026-05-05 11:44 44.07524 14.29404 35029 ft 455 kts 140°
2026-05-05 11:45 44.02877 14.35393 35031 ft 456 kts 140°
2026-05-05 11:45 43.98225 14.41381 35030 ft 456 kts 140°
2026-05-05 11:46 43.93566 14.47370 35031 ft 457 kts 141°
2026-05-05 11:46 43.88893 14.53353 35034 ft 457 kts 141°
2026-05-05 11:47 43.84217 14.59333 35033 ft 458 kts 141°
2026-05-05 11:47 43.79558 14.65272 35040 ft 458 kts 141°
2026-05-05 11:48 43.72524 14.74233 35042 ft 458 kts 141°
2026-05-05 11:48 43.67827 14.80195 35041 ft 458 kts 141°
2026-05-05 11:49 43.63126 14.86140 35042 ft 458 kts 141°
2026-05-05 11:49 43.58418 14.92071 35048 ft 458 kts 141°
2026-05-05 11:50 43.53729 14.98024 35048 ft 459 kts 139°
2026-05-05 11:50 43.49284 15.04363 35041 ft 460 kts 136°
2026-05-05 11:51 43.44985 15.10906 35050 ft 461 kts 135°
2026-05-05 11:51 43.40640 15.17399 35046 ft 461 kts 136°
2026-05-05 11:52 43.36231 15.23797 35041 ft 461 kts 137°
2026-05-05 11:52 43.31804 15.30170 35053 ft 461 kts 137°
2026-05-05 11:53 43.27386 15.36553 35052 ft 461 kts 137°
2026-05-05 11:53 43.22973 15.42943 35054 ft 461 kts 137°
2026-05-05 11:54 43.19303 15.48244 35053 ft 462 kts 137°
2026-05-05 11:54 43.14870 15.54619 35052 ft 462 kts 137°
2026-05-05 11:55 43.09708 15.62015 35054 ft 462 kts 137°
2026-05-05 11:55 43.05986 15.67347 35053 ft 462 kts 137°
2026-05-05 11:56 43.01540 15.73700 35059 ft 462 kts 137°
2026-05-05 11:56 42.97090 15.80047 35054 ft 463 kts 137°
2026-05-05 11:57 42.92633 15.86391 35055 ft 463 kts 137°
2026-05-05 11:57 42.88167 15.92740 35050 ft 464 kts 137°
2026-05-05 11:58 42.83720 15.99052 35056 ft 465 kts 137°
2026-05-05 11:58 42.79226 16.05399 35055 ft 466 kts 137°
2026-05-05 11:59 42.74714 16.11758 35055 ft 468 kts 137°
2026-05-05 11:59 42.70187 16.18125 35060 ft 469 kts 137°
2026-05-05 12:00 42.65645 16.24487 35060 ft 469 kts 138°
2026-05-05 12:00 42.61105 16.30857 35068 ft 470 kts 138°
2026-05-05 12:01 42.56557 16.37230 35066 ft 470 kts 138°
2026-05-05 12:01 42.52000 16.43589 35062 ft 470 kts 138°
2026-05-05 12:02 42.47424 16.49936 35059 ft 471 kts 138°
2026-05-05 12:02 42.42842 16.56286 35066 ft 472 kts 138°
2026-05-05 12:03 42.38257 16.62635 35063 ft 472 kts 138°
2026-05-05 12:03 42.33666 16.68993 35063 ft 472 kts 139°
2026-05-05 12:04 42.29071 16.75350 35057 ft 473 kts 139°
2026-05-05 12:04 42.24459 16.81697 35058 ft 474 kts 139°
2026-05-05 12:05 42.19827 16.88047 35058 ft 475 kts 139°
2026-05-05 12:05 42.15185 16.94401 35060 ft 476 kts 139°
2026-05-05 12:06 42.10532 17.00764 35061 ft 477 kts 139°
2026-05-05 12:06 42.05871 17.07119 35064 ft 477 kts 139°
2026-05-05 12:07 42.01201 17.13473 35068 ft 478 kts 139°
2026-05-05 12:07 41.96518 17.19826 35070 ft 479 kts 139°
2026-05-05 12:08 41.91604 17.25773 35069 ft 471 kts 151°
2026-05-05 12:08 41.86052 17.30371 35070 ft 469 kts 155°
2026-05-05 12:09 41.80466 17.34911 35069 ft 470 kts 155°
2026-05-05 12:09 41.74874 17.39458 35072 ft 471 kts 155°
2026-05-05 12:10 41.69273 17.44022 35068 ft 472 kts 155°
2026-05-05 12:10 41.63657 17.48578 35069 ft 473 kts 155°
2026-05-05 12:11 41.58023 17.53141 35068 ft 474 kts 155°
2026-05-05 12:11 41.52373 17.57703 35070 ft 475 kts 155°
2026-05-05 12:12 41.46701 17.62270 35069 ft 477 kts 155°
2026-05-05 12:12 41.41008 17.66842 35069 ft 478 kts 155°
2026-05-05 12:13 41.35301 17.71421 35071 ft 479 kts 155°
2026-05-05 12:13 41.29574 17.75996 35072 ft 481 kts 155°
2026-05-05 12:14 41.23833 17.80574 35071 ft 482 kts 155°
2026-05-05 12:14 41.18084 17.85169 35074 ft 483 kts 154°
2026-05-05 12:15 41.12319 17.89764 35074 ft 484 kts 155°
2026-05-05 12:15 41.06540 17.94351 35083 ft 485 kts 154°
2026-05-05 12:16 41.00785 17.98904 35085 ft 485 kts 154°
2026-05-05 12:16 40.94984 18.03484 35083 ft 486 kts 154°
2026-05-05 12:17 40.89224 18.08186 35077 ft 488 kts 152°
2026-05-05 12:17 40.83570 18.13166 35078 ft 489 kts 150°
2026-05-05 12:18 40.77937 18.18178 35083 ft 488 kts 151°
2026-05-05 12:18 40.72269 18.23106 35088 ft 487 kts 151°
2026-05-05 12:19 40.66582 18.27968 35092 ft 487 kts 151°
2026-05-05 12:19 40.60901 18.32831 35099 ft 487 kts 151°
2026-05-05 12:20 40.55233 18.37704 35099 ft 487 kts 150°
2026-05-05 12:20 40.49562 18.42568 35100 ft 487 kts 150°
2026-05-05 12:21 40.43892 18.47425 35100 ft 487 kts 150°
2026-05-05 12:21 40.38213 18.52267 35102 ft 487 kts 150°
2026-05-05 12:22 40.32533 18.57099 35103 ft 487 kts 150°
2026-05-05 12:22 40.26850 18.61935 35103 ft 487 kts 150°
2026-05-05 12:23 40.21163 18.66767 35101 ft 488 kts 150°
2026-05-05 12:23 40.15461 18.71597 35106 ft 488 kts 150°
2026-05-05 12:24 40.09756 18.76409 35107 ft 488 kts 150°
2026-05-05 12:24 40.04045 18.81218 35117 ft 489 kts 150°
2026-05-05 12:25 39.98330 18.86030 35118 ft 489 kts 150°
2026-05-05 12:25 39.92612 18.90824 35114 ft 488 kts 150°
2026-05-05 12:26 39.86899 18.95611 35126 ft 488 kts 150°
2026-05-05 12:26 39.81497 19.00956 35127 ft 490 kts 135°
2026-05-05 12:27 39.77256 19.07884 35125 ft 490 kts 126°
2026-05-05 12:27 39.73260 19.15057 35129 ft 490 kts 126°
2026-05-05 12:28 39.69278 19.22158 35131 ft 490 kts 126°
2026-05-05 12:28 39.65266 19.29299 35130 ft 489 kts 126°
2026-05-05 12:29 39.61255 19.36434 35135 ft 489 kts 126°
2026-05-05 12:29 39.57243 19.43556 35129 ft 489 kts 126°
2026-05-05 12:30 39.53225 19.50666 35127 ft 489 kts 126°
2026-05-05 12:30 39.49202 19.57769 35128 ft 489 kts 126°
2026-05-05 12:31 39.45169 19.64866 35126 ft 489 kts 126°
2026-05-05 12:31 39.41136 19.71946 35127 ft 489 kts 126°
2026-05-05 12:32 39.37095 19.79021 35133 ft 489 kts 126°
2026-05-05 12:32 39.33056 19.86089 35133 ft 489 kts 126°
2026-05-05 12:33 39.29015 19.93146 35138 ft 488 kts 126°
2026-05-05 12:33 39.24968 20.00189 35147 ft 488 kts 126°
2026-05-05 12:34 39.20922 20.07232 35158 ft 488 kts 126°
2026-05-05 12:34 39.16900 20.14209 35145 ft 488 kts 126°
2026-05-05 12:35 39.12811 20.21264 35159 ft 488 kts 126°
2026-05-05 12:35 39.08792 20.28225 35150 ft 488 kts 126°
2026-05-05 12:36 39.04754 20.35304 35151 ft 487 kts 126°
2026-05-05 12:36 39.00740 20.42330 35149 ft 487 kts 126°
2026-05-05 12:37 38.96746 20.49293 35148 ft 487 kts 126°
2026-05-05 12:37 38.92715 20.56282 35147 ft 487 kts 126°
2026-05-05 12:38 38.88625 20.63282 35146 ft 486 kts 130°
2026-05-05 12:38 38.83768 20.69178 35143 ft 484 kts 143°
2026-05-05 12:39 38.78508 20.74582 35142 ft 485 kts 142°
2026-05-05 12:39 38.73249 20.79990 35141 ft 485 kts 142°
2026-05-05 12:40 38.67989 20.85380 35136 ft 485 kts 143°
2026-05-05 12:40 38.62716 20.90767 35141 ft 485 kts 142°
2026-05-05 12:41 38.59181 20.94375 35138 ft 485 kts 142°
2026-05-05 12:42 38.56399 20.97337 35129 ft 485 kts 140°
2026-05-05 12:43 38.51353 21.03071 35129 ft 486 kts 139°
2026-05-05 12:43 38.46350 21.08871 35129 ft 486 kts 139°
2026-05-05 12:44 38.41296 21.14601 35124 ft 487 kts 139°
2026-05-05 12:44 38.36189 21.20309 34689 ft 491 kts 139°
2026-05-05 12:45 38.33598 21.23197 33806 ft 497 kts 139°
2026-05-05 12:45 38.30995 21.26098 33096 ft 497 kts 139°
2026-05-05 12:45 38.28406 21.28988 32487 ft 494 kts 139°
2026-05-05 12:45 38.25829 21.31868 31911 ft 491 kts 139°
2026-05-05 12:46 38.23274 21.34724 31366 ft 488 kts 138°
2026-05-05 12:46 38.20739 21.37556 30669 ft 482 kts 138°
2026-05-05 12:46 38.18227 21.40351 29745 ft 477 kts 138°
2026-05-05 12:46 38.15748 21.43100 29015 ft 467 kts 137°
2026-05-05 12:47 38.13388 21.45814 28582 ft 450 kts 136°
2026-05-05 12:47 38.11157 21.48512 28107 ft 436 kts 134°
2026-05-05 12:47 38.09024 21.51173 27638 ft 423 kts 134°